Tracking 18957 objects as of 21-Jan-2018
HD Live streaming from Space Station
objects crossing your sky now

TYVAK 53B

Track TYVAK 53B now!
10-day predictions


NORAD ID: 42795
Int'l Code: 2017-036AG
Perigee: 502.8 km
Apogee: 513.2 km
Inclination: 97.4 °
Period: 94.6 minutes
Semi major axis: 6878 km
RCS: Unknown
Launch date: June 23, 2017
Source: United States (US)
Launch site: SRIHARIKOTA (SRI)
aabbcc
Your satellite tracking list
Your tracking list is empty




NASA's NSSDC Master Catalog

Two Line Element Set (TLE):
1 42795U 17036AG  18021.11591252  .00001775  00000-0  81536-4 0  9999
2 42795  97.4042  83.0049 0007537  35.0821 325.0910 15.21658721 32159
Source of the keplerian elements: AFSPC